Weather History for Texarkana, AR

Change the Weather History Date:

Sunday, August 12, 2012

  Actual Average Record
Temperature  
Mean Temperature 86 °F 83 °F  
Max Temperature 97 °F 94 °F 109 °F (1907)
Min Temperature 74 °F 72 °F 55 °F (1931)
Degree Days  
Heating Degree Days 0 0  
Month to date heating degree days 0 0  
Since 1 June heating degree days 0 0  
Since 1 July heating degree days 0 0  
Cooling Degree Days 21 18  
Month to date cooling degree days 255 216  
Year to date cooling degree days 1998 1476  
Since 1 June cooling degree days 1415 1156  
Growing Degree Days 34 (Base 50)    
Moisture  
Dew Point 66 °F    
Average Humidity 54    
Maximum Humidity 65    
Minimum Humidity 43    
Precipitation  
Precipitation 0.00 in 0.08 in 2.20 in (1966)
Month to date precipitation 0.83 1.11  
Year to date precipitation 21.12 29.62  
Snow  
Snow 0.00 in - - ()
Month to date snowfall 0.0  
Since 1 June snowfall 0.0  
Since 1 July snowfall 0.0  
Snow Depth 0.00 in    
Sea Level Pressure  
Sea Level Pressure 29.93 in    
Wind  
Wind Speed 6 mph (SSE)    
Max Wind Speed 14 mph    
Max Gust Speed 17 mph    
Visibility 10 miles    
Events      
T = Trace of Precipitation, MM = Missing Value Source: NWS Daily Summary

Daily Weather History Graph

Daily Weather History Graph

Search for Another Location

Airport:

Trip Planner

Search our weather history database for the weather conditions in past years. The results will help you decide how hot, cold, wet, or windy it might be!

Date:

Astronomy

Aug. 12, 2012 Rise Set
Actual Time 6:36 AM CDT 8:04 PM CDT
Civil Twilight 6:10 AM CDT 8:30 PM CDT
Nautical Twilight 5:38 AM CDT 9:02 PM CDT
Astronomical Twilight 5:05 AM CDT 9:35 PM CDT
Moon 1:56 AM CDT (8/12) 4:24 PM CDT (8/12)
Length of Visible Light 14h 20m
Length of Day
13h 28m
Waning Crescent, 24% of the Moon is Illuminated
Aug 12
Waning Crescent
Aug 17
New
Aug 24
First Quarter
Aug 31
Full
Sep 8
Last Quarter

Hourly Weather History & Observations

Time (CDT) Temp. Heat Index Dew Point Humidity Pressure Visibility Wind Dir Wind Speed Gust Speed Precip Events Conditions
12:53 AM 75.0 °F - 61.0 °F 62% 29.94 in 10.0 mi East 4.6 mph - N/A   Clear
1:53 AM 75.9 °F - 61.0 °F 60% 29.94 in 10.0 mi ESE 6.9 mph - N/A   Clear
2:53 AM 75.0 °F - 60.1 °F 60% 29.95 in 10.0 mi ESE 6.9 mph - N/A   Clear
3:53 AM 73.9 °F - 60.1 °F 62% 29.96 in 10.0 mi ESE 5.8 mph - N/A   Clear
4:53 AM 73.9 °F - 59.0 °F 59% 29.96 in 10.0 mi ESE 5.8 mph - N/A   Clear
5:53 AM 73.9 °F - 57.9 °F 57% 29.96 in 10.0 mi ESE 6.9 mph - N/A   Clear
6:53 AM 75.0 °F - 57.9 °F 55% 29.97 in 10.0 mi ESE 6.9 mph - N/A   Clear
7:53 AM 75.0 °F - 60.1 °F 60% 29.98 in 10.0 mi ESE 3.5 mph - N/A   Clear
8:53 AM 77.0 °F - 62.1 °F 60% 30.01 in 10.0 mi Calm Calm - N/A   Overcast
9:12 AM 77.0 °F - 62.6 °F 61% 30.03 in 10.0 mi ESE 3.5 mph - N/A   Overcast
9:53 AM 80.1 °F 81.9 °F 64.9 °F 60% 29.99 in 10.0 mi SE 6.9 mph - N/A   Mostly Cloudy
10:03 AM 82.4 °F 84.6 °F 66.2 °F 58% 29.99 in 10.0 mi SSE 8.1 mph - N/A   Scattered Clouds
10:53 AM 86.0 °F 91.5 °F 71.1 °F 61% 29.96 in 10.0 mi South 8.1 mph - N/A   Clear
11:53 AM 89.1 °F 97.0 °F 73.0 °F 59% 29.94 in 10.0 mi South 10.4 mph - N/A   Clear
12:53 PM 91.9 °F 100.7 °F 73.0 °F 54% 29.93 in 10.0 mi Variable 5.8 mph - N/A   Clear
1:53 PM 93.9 °F 100.3 °F 70.0 °F 46% 29.91 in 10.0 mi WSW 9.2 mph - N/A   Scattered Clouds
2:53 PM 93.0 °F 100.1 °F 71.1 °F 49% 29.90 in 10.0 mi South 3.5 mph - N/A   Mostly Cloudy
3:53 PM 95.0 °F 101.3 °F 70.0 °F 44% 29.88 in 10.0 mi SSE 8.1 mph - N/A   Partly Cloudy
4:53 PM 95.0 °F 101.3 °F 70.0 °F 44% 29.87 in 10.0 mi South 8.1 mph - N/A   Scattered Clouds
5:53 PM 93.0 °F 97.9 °F 69.1 °F 45% 29.86 in 10.0 mi South 9.2 mph - N/A   Clear
6:53 PM 93.9 °F 99.1 °F 69.1 °F 44% 29.86 in 10.0 mi South 5.8 mph - N/A   Clear
7:53 PM 91.0 °F 95.6 °F 69.1 °F 48% 29.86 in 10.0 mi South 3.5 mph - N/A   Clear
8:53 PM 86.0 °F 90.7 °F 70.0 °F 59% 29.88 in 10.0 mi SSE 3.5 mph - N/A   Clear
9:53 PM 84.9 °F 90.1 °F 71.1 °F 63% 29.89 in 10.0 mi SE 3.5 mph - N/A   Clear
10:53 PM 84.9 °F 90.1 °F 71.1 °F 63% 29.90 in 10.0 mi SSE 5.8 mph - N/A   Mostly Cloudy
11:53 PM 86.0 °F 90.1 °F 69.1 °F 57% 29.88 in 10.0 mi South 9.2 mph - N/A   Clear